When you browse on this site, cookies collect data to enhance your experience and personalize the content and advertising you see.
Visit our Privacy Policy to learn more. By continuing to use the site, you agree to this use of cookies and data.
  • In Slovakia
  • List of Countries
  • For 7 days
  • Water Temperature
  • Weather Map
  • Weather Widgets
  • user-avatar
    Login

    Hourly Weather Sidi Bu-l-Abbas

    Today, 17 February, Monday

    Time Temperature Precipitation Wind Pressure Humidity
    00:00 +12°C° 0 mm 0 mps 727 mmHg 81%
    01:00 +12°C° 0 mm 0 mps 727 mmHg 82%
    02:00 +11°C° 0 mm 0 mps 726 mmHg 83%
    03:00 +11°C° 0 mm 0 mps 726 mmHg 84%
    04:00 +11°C° 0 mm 0 mps 726 mmHg 84%
    05:00 +11°C° 0 mm 0 mps 726 mmHg 84%
    06:00 +10°C° 0 mm 0 mps 726 mmHg 86%
    07:00 +14°C° 0 mm 1 mps 727 mmHg 77%
    08:00 +16°C° 0 mm 1 mps 727 mmHg 68%
    09:00 +19°C° 0 mm 1 mps 728 mmHg 59%
    10:00 +20°C° 0 mm 1 mps 728 mmHg 54%
    11:00 +21°C° 0 mm 2 mps 728 mmHg 49%
    12:00 +23°C° 0 mm 2 mps 728 mmHg 43%
    13:00 +22°C° 0 mm 3 mps 727 mmHg 43%
    14:00 +22°C° 0 mm 3 mps 727 mmHg 44%
    15:00 +22°C° 0 mm 3 mps 726 mmHg 44%
    16:00 +20°C° 0 mm 3 mps 726 mmHg 52%
    17:00 +18°C° 0 mm 2 mps 726 mmHg 61%
    18:00 +15°C° 0 mm 1 mps 726 mmHg 69%
    19:00 +15°C° 0 mm 1 mps 726 mmHg 71%
    20:00 +14°C° 0 mm 1 mps 727 mmHg 72%
    21:00 +12°C° 0 mm 0 mps 727 mmHg 74%
    22:00 +12°C° 0 mm 0 mps 727 mmHg 74%
    23:00 +11°C° 0 mm 0 mps 727 mmHg 74%

    Tomorrow, 18 February, Tuesday

    Time Temperature Precipitation Wind Pressure Humidity
    00:00 +11°C° 0 mm 0 mps 727 mmHg 74%
    01:00 +11°C° 0 mm 0 mps 726 mmHg 74%
    02:00 +10°C° 0 mm 0 mps 726 mmHg 75%
    03:00 +10°C° 0 mm 0 mps 726 mmHg 76%
    04:00 +9°C° 0 mm 0 mps 726 mmHg 77%
    05:00 +9°C° 0 mm 0 mps 726 mmHg 78%
    06:00 +9°C° 0 mm 0 mps 726 mmHg 78%
    07:00 +11°C° 0 mm 0 mps 727 mmHg 69%
    08:00 +13°C° 0 mm 0 mps 727 mmHg 59%
    09:00 +16°C° 0 mm 0 mps 728 mmHg 49%
    10:00 +17°C° 0 mm 0 mps 728 mmHg 45%
    11:00 +20°C° 0 mm 1 mps 728 mmHg 41%
    12:00 +21°C° 0 mm 1 mps 728 mmHg 36%
    13:00 +20°C° 0 mm 2 mps 727 mmHg 37%
    14:00 +20°C° 0 mm 3 mps 727 mmHg 38%
    15:00 +21°C° 0 mm 4 mps 727 mmHg 39%
    16:00 +18°C° 0 mm 3 mps 726 mmHg 50%
    17:00 +16°C° 0 mm 3 mps 726 mmHg 61%
    18:00 +14°C° 0 mm 2 mps 726 mmHg 72%
    19:00 +14°C° 0 mm 2 mps 726 mmHg 77%
    20:00 +13°C° 0 mm 1 mps 727 mmHg 82%
    21:00 +13°C° 0 mm 1 mps 727 mmHg 87%
    22:00 +13°C° 0 mm 1 mps 727 mmHg 86%
    23:00 +13°C° 0 mm 1 mps 727 mmHg 86%

    Day after tomorrow, 19 February, Wednesday

    Time Temperature Precipitation Wind Pressure Humidity
    00:00 +13°C° 0 mm 1 mps 727 mmHg 86%
    01:00 +12°C° 0 mm 1 mps 727 mmHg 89%
    02:00 +12°C° 0 mm 1 mps 726 mmHg 91%
    03:00 +12°C° 0 mm 1 mps 726 mmHg 93%
    04:00 +12°C° 0 mm 1 mps 726 mmHg 93%
    05:00 +12°C° 0 mm 1 mps 726 mmHg 93%
    06:00 +12°C° 0 mm 1 mps 726 mmHg 92%
    07:00 +12°C° 0 mm 1 mps 727 mmHg 90%
    08:00 +12°C° 0 mm 1 mps 727 mmHg 87%
    09:00 +13°C° 0 mm 1 mps 728 mmHg 84%
    10:00 +14°C° 0 mm 1 mps 728 mmHg 79%
    11:00 +15°C° 0 mm 1 mps 728 mmHg 73%
    12:00 +16°C° 0 mm 1 mps 727 mmHg 68%
    13:00 +17°C° 0 mm 2 mps 727 mmHg 63%
    14:00 +17°C° 0 mm 2 mps 727 mmHg 59%
    15:00 +18°C° 0 mm 3 mps 726 mmHg 55%
    16:00 +17°C° 0 mm 3 mps 726 mmHg 64%
    17:00 +14°C° 0 mm 3 mps 726 mmHg 72%
    18:00 +13°C° 0 mm 3 mps 725 mmHg 81%
    19:00 +13°C° 0 mm 2 mps 726 mmHg 85%
    20:00 +12°C° 0 mm 2 mps 726 mmHg 90%
    21:00 +12°C° 0 mm 1 mps 726 mmHg 94%
    22:00 +11°C° 0 mm 1 mps 726 mmHg 94%
    23:00 +11°C° 0 mm 1 mps 725 mmHg 94%

    20 February, Thursday

    Time Temperature Precipitation Wind Pressure Humidity
    00:00 +11°C° 0 mm 1 mps 725 mmHg 94%
    01:00 +11°C° 0 mm 1 mps 725 mmHg 93%
    02:00 +11°C° 0 mm 1 mps 724 mmHg 93%
    03:00 +11°C° 0 mm 1 mps 724 mmHg 92%
    04:00 +10°C° 0 mm 1 mps 724 mmHg 91%
    05:00 +10°C° 0 mm 1 mps 723 mmHg 91%
    06:00 +10°C° 0 mm 1 mps 723 mmHg 90%
    07:00 +12°C° 0 mm 1 mps 723 mmHg 81%
    08:00 +14°C° 0 mm 1 mps 724 mmHg 73%
    09:00 +16°C° 0 mm 1 mps 724 mmHg 65%
    10:00 +18°C° 0 mm 1 mps 724 mmHg 58%
    11:00 +20°C° 0 mm 1 mps 724 mmHg 50%
    12:00 +21°C° 0 mm 1 mps 723 mmHg 43%
    13:00 +21°C° 0 mm 2 mps 723 mmHg 43%
    14:00 +21°C° 0 mm 2 mps 722 mmHg 44%
    15:00 +21°C° 0 mm 3 mps 722 mmHg 44%
    16:00 +19°C° 0 mm 2 mps 721 mmHg 54%
    17:00 +17°C° 0 mm 2 mps 721 mmHg 64%
    18:00 +16°C° 0 mm 1 mps 721 mmHg 74%
    19:00 +15°C° 0 mm 1 mps 721 mmHg 75%
    20:00 +15°C° 0 mm 1 mps 721 mmHg 77%
    21:00 +14°C° 0 mm 1 mps 722 mmHg 79%
    22:00 +14°C° 0 mm 1 mps 722 mmHg 77%
    23:00 +14°C° 0 mm 1 mps 722 mmHg 76%

    21 February, Friday

    Time Temperature Precipitation Wind Pressure Humidity
    00:00 +13°C° 0 mm 1 mps 722 mmHg 74%
    01:00 +13°C° 0 mm 1 mps 722 mmHg 73%
    02:00 +13°C° 0 mm 1 mps 722 mmHg 71%
    03:00 +13°C° 0 mm 1 mps 722 mmHg 69%
    04:00 +12°C° 0 mm 1 mps 722 mmHg 71%
    05:00 +12°C° 0 mm 1 mps 722 mmHg 72%
    06:00 +12°C° 0 mm 1 mps 722 mmHg 74%
    13:00 +18°C° 0 mm 4 mps 725 mmHg 58%
    14:00 +18°C° 0 mm 4 mps 725 mmHg 61%
    15:00 +17°C° 0 mm 6 mps 725 mmHg 62%
    16:00 +16°C° 0.2 mm 5 mps 725 mmHg 70%
    17:00 +14°C° 0.2 mm 4 mps 725 mmHg 79%
    18:00 +13°C° 0.2 mm 3 mps 725 mmHg 87%
    19:00 +13°C° 0.1 mm 2 mps 725 mmHg 90%
    20:00 +13°C° 0.1 mm 2 mps 726 mmHg 92%
    21:00 +12°C° 0.1 mm 1 mps 726 mmHg 94%
    22:00 +12°C° 0 mm 1 mps 726 mmHg 94%
    23:00 +11°C° 0 mm 1 mps 727 mmHg 95%

    22 February, Saturday

    Time Temperature Precipitation Wind Pressure Humidity
    00:00 +11°C° 0 mm 1 mps 727 mmHg 95%
    01:00 +11°C° 0 mm 1 mps 727 mmHg 95%
    02:00 +11°C° 0 mm 1 mps 727 mmHg 95%
    03:00 +11°C° 0 mm 1 mps 727 mmHg 95%
    04:00 +12°C° 0 mm 1 mps 727 mmHg 95%
    05:00 +12°C° 0 mm 1 mps 727 mmHg 94%
    06:00 +12°C° 0 mm 1 mps 728 mmHg 93%
    07:00 +13°C° 0 mm 1 mps 728 mmHg 89%
    08:00 +13°C° 0 mm 1 mps 729 mmHg 85%
    09:00 +14°C° 0 mm 1 mps 729 mmHg 81%
    10:00 +15°C° 0 mm 2 mps 729 mmHg 72%
    11:00 +17°C° 0 mm 2 mps 729 mmHg 63%
    12:00 +19°C° 0 mm 3 mps 730 mmHg 54%
    13:00 +19°C° 0 mm 4 mps 729 mmHg 53%
    14:00 +19°C° 0 mm 5 mps 729 mmHg 52%
    15:00 +20°C° 0 mm 6 mps 729 mmHg 51%
    16:00 +17°C° 0 mm 5 mps 728 mmHg 60%
    17:00 +15°C° 0 mm 4 mps 728 mmHg 69%
    18:00 +14°C° 0 mm 3 mps 728 mmHg 78%
    19:00 +13°C° 0 mm 3 mps 729 mmHg 81%
    20:00 +13°C° 0 mm 2 mps 729 mmHg 83%
    21:00 +13°C° 0 mm 2 mps 729 mmHg 86%
    22:00 +13°C° 0 mm 2 mps 729 mmHg 84%
    23:00 +12°C° 0 mm 2 mps 729 mmHg 83%
    Show more